STARLINK-32402, 61708

Orbit data source: Space-Track

STARLINK-32402, 61708 is a payload satellite owned by SpaceX/Seattle (US) in LEO that was launched on Wed, 30 Oct 2024 UTC via an FALCON 9 launch vehicle from the Air Force Eastern Test Range (AFETR). Payloads include a variety of satellites, spacecraft, and rockets equipped with specific instruments for various scientific and technological missions. These include communications satellites like Starlink; space stations such as the ISS; scientific satellites like the Hubble; Earth observation satellites from companies like Planet Labs, Umbra, and HawkEye 360; GPS; miniature CubeSats for education and research; and military/defense satellites.

Loading next visibility...
STARLINK-32402 details
Identifier
61708, 2024-196B
Orbit
LEO
Last TLE update18 hours ago
Origin
Flag of USSpaceX/Seattle (US)
ManufacturerSpaceX/Seattle
MissionOperational spacecraft
Bus & MotorSTARLINK V2M, Unknown motor
Mass730 kg wet, ~700 kg dry
Launch date (UTC)
2024-10-30 (2 months ago)
Launch vehicle
FALCON 9
Launch site
Air Force Eastern Test Range (AFETR)
Object type
Payload
Rocket body
Debris
Shape & HBRUnknown
Radar Cross SectionLarge (>1 m²)

Expand to show TLE details & history

TLE from 18 hours ago
0 STARLINK-32402
1 61708U 24196B   24360.68596246  .00000089  00000-0  12222-4 0  9995
2 61708  53.1631 342.5620 0001430 102.9140 257.2025 15.39621112  9935
Epoch: 2024-12-25T16:27Z
Definitive object data (Epoch: 2024-12-25T16:27:47.156Z)
Latitude-0°
Longitude0.93936°
Altitude448.349 km
Speed7.644 km/s
True Right ascension22h 50m 14s
True Declination0° 00' 00"
Sunlit
Object was in daylight at TLE epoch
Visualization TLE readout
Latitude-51.73025°
Longitude-111.85847°
Altitude466.024 km
Speed7.633 km/s
Apparent Right ascension19h 01m 31s
Apparent Declination-58° 17' 25"
Sunlit
Object is in daylight
Visualization observer readout
Local Sidereal Time10:04:15
Azimuth137.945° SSE
Elevation-55.844°
Doppler factor1
Orbital elements
Apogee altitude448.462 km
Perigee altitude446.51 km
Semi-major axis6,825.623 km
Eccentricity0.000143
Inclination53.1631°
RAAN342.562°
Arg. of periapsis102.914°
True anomaly257.18652°
Mean anomaly257.2025°
Eccentric anomaly257.19451°
Mean motion3.84884 °/min
BSTAR0.000012222
Orbital period93.53 mins
Loading maneuver chart data...
Loading historical data...
Loading historical data...
Loading historical data...
Loading historical data...
Loading historical data...
Loading historical data...
Loading historical data...

STARLINK-32402 Visibility forecast

Observer location: undefined°, undefined

Span
Click to sort rows by Start time (UTC) header in descending order
Start Az.
Max El. time (UTC)
Max El. Az.
Max El.
End time (UTC)
End Az.
6 mins2024-12-27 01:21:02.061Z220.422° SW2024-12-27 01:24:02.061Z157.438° SSE42.917°2024-12-27 01:27:02.061Z55.436° ENE
5 mins2024-12-27 07:55:02.061Z329.595° NNW2024-12-27 07:57:02.061Z62.241° ENE37.982°2024-12-27 08:00:02.061Z115.239° SE
|